FW5799 Weather Reports


Display with metric or nautical units.
time (UTC)temp
F
wind
direction
speed
MPH
gust
MPH
rain 1hr
in
rain 24hr
in
rain mn
in
humidity
%
barometer
mb
20260503221557 54 0 0.0 0.0 0.00 0.30 0.00 98 1012.5
20260503214609 55 0 0.0 2.0 0.00 0.30 0.30 98 1012.3
20260503213100 56 360 0.0 3.0 0.00 0.30 0.30 98 1012.2
20260503211604 56 0 0.0 2.0 0.00 0.30 0.30 98 1012.3
20260503210055 57 0 0.0 1.0 0.00 0.30 0.30 98 1012.2
20260503204559 57 0 0.0 1.0 0.00 0.30 0.30 98 1012.3
20260503203057 57 0 0.0 1.0 0.00 0.29 0.29 98 1012.1
20260503201555 58 0 0.0 2.0 0.03 0.29 0.29 98 1012.0
20260503200101 58 0 0.0 2.0 0.04 0.29 0.29 98 1012.1
20260503194555 58 0 0.0 2.0 0.06 0.29 0.29 97 1012.0
20260503193059 58 360 0.0 4.0 0.07 0.29 0.29 97 1011.9
20260503191558 58 360 0.0 2.0 0.04 0.26 0.26 97 1012.0
20260503190058 58 360 0.0 3.0 0.03 0.25 0.25 96 1011.8
20260503184607 59 0 0.0 1.0 0.01 0.23 0.23 96 1011.5
20260503183058 59 0 0.0 4.0 0.00 0.22 0.22 96 1011.7
20260503181602 59 360 1.0 3.0 0.00 0.22 0.22 96 1011.5
20260503180100 59 0 0.0 3.0 0.00 0.22 0.22 96 1011.5
20260503174620 59 360 0.0 5.0 0.00 0.22 0.22 95 1011.3
20260503173107 59 360 1.0 6.0 0.00 0.22 0.22 95 1011.2
20260503171558 59 360 1.0 6.0 0.00 0.22 0.22 95 1011.1
20260503160115 61 360 0.0 4.0 0.00 0.21 0.21 93 1010.9
20260503150104 61 360 0.0 4.0 0.00 0.21 0.21 94 1011.2
20260503100114 66 277 1.0 3.0 0.00 0.15 0.15 82 1011.6
20260503081606 65 254 1.0 4.0 0.00 0.15 0.15 88 1011.6
20260503071558 60 132 0.0 3.0 0.00 0.16 0.15 96 1011.2
20260503054556 56 0 0.0 1.0 0.00 0.16 0.15 99 1011.5
20260503053057 56 0 0.0 0.0 0.00 0.16 0.15 98 1011.6
20260503051556 55 0 0.0 1.0 0.00 0.16 0.15 98 1011.6
20260503050055 55 0 0.0 1.0 0.00 0.16 0.15 98 1011.6
20260503044556 55 0 0.0 0.0 0.00 0.16 0.15 98 1011.9
20260503043103 55 0 0.0 1.0 0.00 0.16 0.15 98 1012.1
20260503041557 55 0 0.0 2.0 0.00 0.16 0.15 98 1012.1
20260503034609 55 0 0.0 0.0 0.00 0.16 0.15 98 1012.0
20260503033058 55 0 0.0 1.0 0.00 0.16 0.15 98 1012.0
20260503031557 55 0 0.0 1.0 0.00 0.16 0.15 98 1012.0
20260503030057 55 360 0.0 2.0 0.00 0.16 0.15 98 1012.0
20260503024556 55 360 0.0 3.0 0.00 0.16 0.15 98 1012.2
20260503023059 55 360 0.0 3.0 0.00 0.16 0.15 97 1012.0
20260503021558 55 0 0.0 2.0 0.00 0.16 0.15 97 1012.4
20260503020057 55 0 0.0 1.0 0.00 0.16 0.15 97 1012.5
20260503014605 55 0 0.0 2.0 0.00 0.16 0.15 97 1012.5
20260503013056 55 360 0.0 3.0 0.01 0.16 0.15 97 1012.7
20260503011556 56 360 0.0 2.0 0.01 0.16 0.15 96 1012.8
20260503010056 56 0 1.0 3.0 0.01 0.16 0.15 96 1013.0
20260503004555 56 0 0.0 4.0 0.00 0.15 0.14 96 1013.3
20260503003104 56 0 0.0 2.0 0.00 0.14 0.14 95 1013.2
20260503001611 56 0 0.0 3.0 0.02 0.14 0.14 95 1013.0
20260503000059 56 0 0.0 4.0 0.08 0.14 0.14 95 1013.1
20260502234556 56 360 1.0 5.0 0.12 0.14 0.14 95 1013.4
20260502233059 57 360 1.0 3.0 0.14 0.14 0.14 94 1014.0
20260502231555 57 360 0.0 2.0 0.11 0.12 0.11 93 1014.5
20260502230056 58 0 0.0 3.0 0.05 0.06 0.05 91 1015.0
20260502224555 59 360 1.0 8.0 0.01 0.02 0.01 87 1015.1
20260502223054 61 0 0.0 0.0 0.00 0.00 0.00 86 1015.2